FW3021 Weather Reports


time (UTC)temp
F
wind
direction
speed
knots
gust
knots
rain 1hr
in
rain 24hr
in
rain mn
in
humidity
%
barometer
mb
20260906191537 67 0 3.5 7.8 0.00 0.00 0.00 74 1019.2
20260906190557 68 0 2.6 7.0 0.00 0.00 0.00 73 1019.4
20260906185517 68 0 3.5 8.7 0.00 0.00 0.00 74 1019.4
20260906184517 68 0 3.5 7.8 0.00 0.00 0.00 73 1019.4
20260906183517 68 0 2.6 7.8 0.00 0.00 0.00 73 1019.8
20260906182517 68 0 2.6 7.8 0.00 0.00 0.00 73 1019.9
20260906181537 68 0 2.6 7.0 0.00 0.00 0.00 73 1019.8
20260906180537 68 0 2.6 7.8 0.00 0.00 0.00 73 1019.8
20260906175517 67 0 3.5 7.0 0.00 0.00 0.00 73 1020.0
20260906174517 67 0 2.6 5.2 0.00 0.00 0.00 74 1020.1
20260906173517 67 0 3.5 7.8 0.00 0.00 0.00 74 1020.0
20260906172517 67 0 2.6 5.2 0.00 0.00 0.00 74 1020.1
20260906171517 67 0 3.5 7.0 0.00 0.00 0.00 73 1020.2
20260906170517 67 0 3.5 7.0 0.00 0.00 0.00 73 1020.2
20260906165517 68 0 2.6 7.8 0.00 0.00 0.00 72 1020.2
20260906164537 67 0 4.3 7.8 0.00 0.00 0.00 72 1020.1
20260906163517 68 0 3.5 8.7 0.00 0.00 0.00 71 1020.2
20260906162557 68 0 3.5 9.6 0.00 0.00 0.00 71 1020.0
20260906161517 68 0 2.6 9.6 0.00 0.00 0.00 72 1020.0
20260906160517 68 0 2.6 7.8 0.00 0.00 0.00 73 1020.0
20260906155517 68 0 2.6 7.0 0.00 0.00 0.00 73 1020.0
20260906154517 67 0 2.6 7.0 0.00 0.00 0.00 73 1020.1
20260906153517 67 0 3.5 7.8 0.00 0.00 0.00 73 1020.0
20260906152517 67 0 3.5 7.8 0.00 0.00 0.00 71 1020.1
20260906151517 67 0 3.5 7.0 0.00 0.00 0.00 72 1020.0
20260906150517 68 0 4.3 8.7 0.00 0.00 0.00 71 1019.8
20260906145517 68 0 3.5 7.8 0.00 0.00 0.00 71 1019.8
20260906144517 68 0 2.6 7.8 0.00 0.00 0.00 69 1019.8
20260906143537 68 0 1.7 5.2 0.00 0.00 0.00 71 1020.0
20260906142517 67 0 3.5 7.0 0.00 0.00 0.00 71 1020.1
20260906141517 67 0 1.7 4.3 0.00 0.00 0.00 72 1020.3
20260906140517 67 0 2.6 8.7 0.00 0.00 0.00 70 1020.2
20260906135516 68 0 3.5 8.7 0.00 0.00 0.00 71 1020.3
20260906134516 68 0 2.6 7.0 0.00 0.00 0.00 71 1020.4
20260906133517 68 0 1.7 4.3 0.00 0.00 0.00 71 1020.3
20260906132517 68 0 0.9 1.7 0.00 0.00 0.00 72 1020.4
20260906131516 66 0 1.7 4.3 0.00 0.00 0.00 73 1020.5
20260906130517 65 0 0.9 4.3 0.00 0.00 0.00 74 1020.4
20260906125516 64 0 0.9 3.5 0.00 0.00 0.00 76 1020.2
20260906124517 63 0 1.7 3.5 0.00 0.00 0.00 77 1020.2
20260906123516 62 0 1.7 3.5 0.00 0.00 0.00 77 1020.1
20260906122516 61 0 1.7 3.5 0.00 0.00 0.00 78 1019.9
20260906121517 60 0 1.7 4.3 0.00 0.00 0.00 79 1019.8
20260906120516 59 0 1.7 3.5 0.00 0.00 0.00 80 1020.0
20260906115516 58 0 2.6 5.2 0.00 0.00 0.00 82 1019.9
20260906114516 57 0 2.6 4.3 0.00 0.00 0.00 82 1019.9
20260906113516 56 0 2.6 3.5 0.00 0.00 0.00 81 1019.7
20260906112516 56 23 2.6 3.5 0.00 0.00 0.00 80 1019.3
20260906111516 56 23 1.7 3.5 0.00 0.00 0.00 79 1019.2
20260906110516 57 0 2.6 3.5 0.00 0.00 0.00 79 1019.0
20260906105516 57 0 2.6 3.5 0.00 0.00 0.00 80 1018.9
20260906104516 57 0 2.6 3.5 0.00 0.00 0.00 79 1018.8
20260906103516 58 23 2.6 3.5 0.00 0.00 0.00 78 1019.0
20260906102516 58 0 1.7 3.5 0.00 0.00 0.00 78 1018.9
20260906101516 58 0 1.7 3.5 0.00 0.00 0.00 77 1018.8
20260906100516 59 0 2.6 4.3 0.00 0.00 0.00 77 1018.8
20260906095516 59 0 2.6 3.5 0.00 0.00 0.00 77 1018.6
20260906094536 60 0 2.6 5.2 0.00 0.00 0.00 77 1018.4
20260906093516 59 0 2.6 4.3 0.00 0.00 0.00 77 1018.2
20260906092516 59 0 2.6 3.5 0.00 0.00 0.00 77 1018.3
20260906091557 59 0 2.6 4.3 0.00 0.00 0.00 78 1018.5
20260906090516 59 0 2.6 4.3 0.00 0.00 0.00 78 1018.5
20260906085536 58 0 2.6 3.5 0.00 0.00 0.00 79 1018.4
20260906084536 58 0 2.6 4.3 0.00 0.00 0.00 79 1018.5
20260906083516 58 0 2.6 3.5 0.00 0.00 0.00 79 1018.8
20260906082516 58 0 2.6 3.5 0.00 0.00 0.00 78 1018.8
20260906081536 58 0 2.6 3.5 0.00 0.00 0.00 78 1018.8
20260906080616 58 0 2.6 3.5 0.00 0.00 0.00 78 1018.8
20260906075516 58 23 2.6 3.5 0.00 0.00 0.00 78 1018.8
20260906074516 59 0 2.6 3.5 0.00 0.00 0.00 78 1018.8
20260906073516 59 338 2.6 3.5 0.00 0.00 0.00 77 1018.7
20260906072516 60 338 1.7 3.5 0.00 0.00 0.00 76 1018.9
20260906071516 61 0 2.6 5.2 0.00 0.00 0.00 75 1019.0
20260906070516 60 23 2.6 6.1 0.00 0.00 0.00 76 1018.9
20260906065516 60 0 2.6 5.2 0.00 0.00 0.00 76 1019.1
20260906064516 60 0 2.6 4.3 0.00 0.00 0.00 77 1019.1
20260906063516 59 23 2.6 4.3 0.00 0.00 0.00 78 1019.2
20260906062556 59 0 2.6 4.3 0.00 0.00 0.00 79 1019.2
20260906061516 58 23 2.6 4.3 0.00 0.00 0.00 79 1019.2
20260906060536 58 23 2.6 2.6 0.00 0.00 0.00 79 1019.3
20260906055516 59 23 2.6 3.5 0.00 0.00 0.00 78 1019.2
20260906054536 59 23 1.7 2.6 0.00 0.00 0.00 78 1019.3
20260906053516 59 23 2.6 3.5 0.00 0.00 0.00 78 1019.2
20260906052516 59 23 1.7 2.6 0.00 0.00 0.00 78 1019.2
20260906051516 59 23 1.7 2.6 0.00 0.00 0.00 78 1018.9
20260906050516 59 23 2.6 4.3 0.00 0.00 0.00 79 1019.1
20260906045516 60 23 1.7 2.6 0.00 0.00 0.00 78 1019.2
20260906044536 60 23 1.7 2.6 0.00 0.00 0.00 77 1019.1
20260906043516 61 23 1.7 3.5 0.00 0.00 0.00 77 1019.0
20260906042516 61 23 2.6 3.5 0.00 0.00 0.00 76 1018.7
20260906041536 61 23 1.7 3.5 0.00 0.00 0.00 77 1018.5
20260906040516 60 23 1.7 3.5 0.00 0.00 0.00 78 1018.5
20260906035516 60 23 1.7 3.5 0.00 0.00 0.00 79 1018.6
20260906034516 60 23 1.7 3.5 0.00 0.00 0.00 79 1018.6
20260906033516 59 23 2.6 4.3 0.00 0.00 0.00 80 1018.5
20260906032516 59 23 1.7 2.6 0.00 0.00 0.00 80 1018.6
20260906031516 59 45 1.7 2.6 0.00 0.00 0.00 80 1018.5
20260906030516 59 45 1.7 2.6 0.00 0.00 0.00 80 1018.5
20260906025516 59 23 1.7 3.5 0.00 0.00 0.00 80 1018.4
20260906024516 59 23 1.7 2.6 0.00 0.00 0.00 79 1018.5
20260906023515 60 23 1.7 2.6 0.00 0.00 0.00 79 1018.4
20260906022516 60 45 1.7 2.6 0.00 0.00 0.00 79 1018.5
20260906021516 60 45 1.7 3.5 0.00 0.00 0.00 79 1018.5
20260906020516 60 45 1.7 3.5 0.00 0.00 0.00 79 1018.3
20260906015515 60 23 1.7 2.6 0.00 0.00 0.00 79 1018.1
20260906014515 60 23 1.7 2.6 0.00 0.00 0.00 79 1018.1
20260906013515 60 45 1.7 2.6 0.00 0.00 0.00 79 1017.9
20260906012555 61 0 1.7 2.6 0.00 0.00 0.00 79 1017.9
20260906011515 61 0 1.7 2.6 0.00 0.00 0.00 79 1017.8
20260906010516 61 0 1.7 2.6 0.00 0.00 0.00 79 1017.7
20260906005515 61 0 1.7 2.6 0.00 0.00 0.00 79 1017.6
20260906004516 61 0 1.7 2.6 0.00 0.00 0.00 79 1017.7
20260906003516 62 0 0.9 1.7 0.00 0.00 0.00 78 1017.6
20260906002515 63 0.0 0.0 0.00 0.00 0.00 78 1017.6
20260906001515 64 0.0 0.0 0.00 0.00 0.00 77 1017.6
20260906000515 65 0.0 1.7 0.00 0.00 0.00 76 1017.8
20260905235515 66 0.0 0.9 0.00 0.00 0.00 74 1017.9
20260905234517 66 0.0 0.0 0.00 0.00 0.00 73 1017.8
20260905233517 66 0 0.9 1.7 0.00 0.00 0.00 71 1017.9
20260905232517 66 0.0 2.6 0.00 0.00 0.00 72 1017.7
20260905231517 66 0.0 1.7 0.00 0.00 0.00 72 1017.9
20260905230517 66 0 0.9 2.6 0.00 0.00 0.00 71 1018.1
20260905225515 66 0 1.7 3.5 0.00 0.00 0.00 72 1018.0
20260905224518 66 0 0.9 2.6 0.00 0.00 0.00 72 1018.1
20260905223537 66 0 1.7 4.3 0.00 0.00 0.00 72 1018.0
20260905222517 66 0 1.7 4.3 0.00 0.00 0.00 71 1018.1
20260905221517 66 0 1.7 7.0 0.00 0.00 0.00 71 1018.0
20260905220517 67 0 1.7 5.2 0.00 0.00 0.00 71 1018.0
20260905215517 67 0 1.7 7.0 0.00 0.00 0.00 71 1018.2
20260905214517 67 0 2.6 7.0 0.00 0.00 0.00 70 1018.3
20260905213517 67 0 2.6 5.2 0.00 0.00 0.00 71 1018.5
20260905212537 67 0 1.7 5.2 0.00 0.00 0.00 71 1018.5
20260905211537 67 0 3.5 5.2 0.00 0.00 0.00 70 1018.6
20260905210517 68 0 2.6 5.2 0.00 0.00 0.00 70 1018.6
20260905205537 68 0 2.6 5.2 0.00 0.00 0.00 70 1018.6
20260905204517 68 0 3.5 7.8 0.00 0.00 0.00 69 1018.6
20260905203517 68 0 4.3 7.8 0.00 0.00 0.00 69 1018.5
20260905202517 68 0 3.5 7.0 0.00 0.00 0.00 69 1018.5
20260905201517 68 0 4.3 8.7 0.00 0.00 0.00 68 1018.6
20260905200517 69 0 2.6 5.2 0.00 0.00 0.00 68 1018.8
20260905195517 69 0 1.7 5.2 0.00 0.00 0.00 68 1018.7
20260905194517 68 0 3.5 7.0 0.00 0.00 0.00 69 1018.6
20260905193517 68 0 2.6 7.0 0.00 0.00 0.00 68 1018.9
20260905192517 68 0 3.5 7.0 0.00 0.00 0.00 69 1019.3